TimeMST,TemperatureF,Dew PointF,Humidity,Sea Level PressureIn,VisibilityMPH,Wind Direction,Wind SpeedMPH,Gust SpeedMPH,PrecipitationIn,Events,Conditions,WindDirDegrees,DateUTC
12:00 AM,43.9,11.7,27,29.76,-9999.0,West,19.6,38.0,N/A,,Unknown,260,2013-01-18 07:00:00
1:00 AM,43.0,13.1,30,29.78,-9999.0,West,18.4,29.9,N/A,,Unknown,260,2013-01-18 08:00:00
2:00 AM,43.0,14.5,32,29.77,-9999.0,West,16.1,33.4,N/A,,Unknown,260,2013-01-18 09:00:00
3:00 AM,42.8,14.9,32,29.78,-9999.0,West,17.3,33.4,N/A,,Unknown,260,2013-01-18 10:00:00
4:00 AM,42.4,17.4,37,29.79,-9999.0,WSW,10.4,20.7,N/A,,Unknown,250,2013-01-18 11:00:00
5:00 AM,42,18,24,29.76,,West,11.5,,,,,270,2013-01-18 12:00:00
5:00 AM,42.4,17.6,37,29.76,-9999.0,West,11.5,23.0,N/A,,Unknown,270,2013-01-18 12:00:00
6:00 AM,43.0,18.1,37,29.73,-9999.0,West,13.8,31.1,N/A,,Unknown,270,2013-01-18 13:00:00
7:00 AM,42.8,18.1,37,29.72,-9999.0,West,16.1,29.9,N/A,,Unknown,260,2013-01-18 14:00:00
8:00 AM,42.6,17.2,36,29.73,-9999.0,West,13.8,28.8,N/A,,Unknown,260,2013-01-18 15:00:00
9:00 AM,42.6,16.9,35,29.75,-9999.0,West,21.9,35.7,N/A,,Unknown,260,2013-01-18 16:00:00
10:00 AM,42.3,17.2,37,29.72,-9999.0,West,26.5,38.0,N/A,,Unknown,260,2013-01-18 17:00:00
11:00 AM,43,17,22,29.73,,West,23.0,,,,,260,2013-01-18 18:00:00
11:00 AM,43.3,17.2,35,29.73,-9999.0,West,23.0,43.7,N/A,,Unknown,260,2013-01-18 18:00:00
12:00 PM,43.9,17.2,34,29.73,-9999.0,West,26.5,43.7,N/A,,Unknown,260,2013-01-18 19:00:00
1:00 PM,44.8,16.3,32,29.74,-9999.0,West,13.8,31.1,N/A,,Unknown,270,2013-01-18 20:00:00
2:00 PM,43.9,16.5,33,29.77,-9999.0,West,13.8,24.2,N/A,,Unknown,260,2013-01-18 21:00:00
3:00 PM,43.2,15.8,33,29.78,-9999.0,West,19.6,33.4,N/A,,Unknown,260,2013-01-18 22:00:00
4:00 PM,42.1,15.3,34,29.78,-9999.0,West,23.0,39.1,N/A,,Unknown,260,2013-01-18 23:00:00
5:00 PM,42,15,20,29.79,,West,25.3,,,,,260,2013-01-19 00:00:00
5:00 PM,42.3,14.7,33,29.79,-9999.0,West,25.3,39.1,N/A,,Unknown,260,2013-01-19 00:00:00
6:00 PM,41.2,14.4,34,29.83,-9999.0,West,20.7,32.2,N/A,,Unknown,260,2013-01-19 01:00:00
7:00 PM,41.2,13.6,33,29.88,-9999.0,West,16.1,32.2,N/A,,Unknown,260,2013-01-19 02:00:00
8:00 PM,40.6,13.3,33,29.89,-9999.0,West,15.0,25.3,N/A,,Unknown,270,2013-01-19 03:00:00
9:00 PM,39.9,12.4,32,29.92,-9999.0,West,11.5,20.7,N/A,,Unknown,270,2013-01-19 04:00:00
10:00 PM,40.1,11.7,31,29.95,-9999.0,West,12.7,25.3,N/A,,Unknown,270,2013-01-19 05:00:00
11:00 PM,29,24,74,30.01,,NE,6.9,,,,,40,2013-01-19 06:00:00
11:00 PM,29.5,23.9,80,30.01,-9999.0,NE,6.9,-,N/A,,Unknown,40,2013-01-19 06:00:00